Time,TemperatureF,DewpointF,PressureIn,WindDirection,WindDirectionDegrees,WindSpeedMPH,WindSpeedGustMPH,Humidity,HourlyPrecipIn,Conditions,Clouds,dailyrainin,SoftwareType,DateUTC
2013-02-09 00:01:00,25.0,25.0,30.04,SE,130,12.0,21.0,100,-99.99,,,-99.99,,2013-02-09 06:01:00,
2013-02-09 00:11:00,25.0,25.0,30.04,SE,130,12.0,21.0,100,-99.99,,,-99.99,,2013-02-09 06:11:00,
2013-02-09 00:21:00,25.0,25.0,30.04,SE,130,12.0,21.0,100,-99.99,,,-99.99,,2013-02-09 06:21:00,
2013-02-09 00:31:00,25.0,25.0,30.02,SE,130,18.0,27.0,100,-99.99,,,-99.99,,2013-02-09 06:31:00,
2013-02-09 00:42:00,25.0,25.0,30.02,SE,130,18.0,27.0,100,-99.99,,,-99.99,,2013-02-09 06:42:00,
2013-02-09 00:52:00,27.0,27.0,30.01,SE,140,22.0,33.0,100,-99.99,,,-99.99,,2013-02-09 06:52:00,
2013-02-09 01:01:00,27.0,27.0,30.01,SE,140,22.0,33.0,100,-99.99,,,-99.99,,2013-02-09 07:01:00,
2013-02-09 01:11:00,27.0,27.0,30.02,ESE,120,10.0,22.0,100,-99.99,,,-99.99,,2013-02-09 07:11:00,
2013-02-09 01:21:00,27.0,27.0,30.02,ESE,120,10.0,22.0,100,-99.99,,,-99.99,,2013-02-09 07:21:00,
2013-02-09 01:31:00,27.0,27.0,30.01,SE,140,13.0,22.0,100,-99.99,,,-99.99,,2013-02-09 07:31:00,
2013-02-09 01:42:00,27.0,27.0,30.01,SE,140,13.0,22.0,100,-99.99,,,-99.99,,2013-02-09 07:42:00,
2013-02-09 01:51:00,27.0,27.0,30.00,SE,130,17.0,23.0,100,-99.99,,,-99.99,,2013-02-09 07:51:00,
2013-02-09 02:01:00,27.0,27.0,30.00,SE,130,17.0,23.0,100,-99.99,,,-99.99,,2013-02-09 08:01:00,
2013-02-09 02:11:00,25.0,25.0,29.99,SE,130,18.0,28.0,100,-99.99,,,-99.99,,2013-02-09 08:11:00,
2013-02-09 02:21:00,25.0,25.0,29.99,SE,130,18.0,28.0,100,-99.99,,,-99.99,,2013-02-09 08:21:00,
2013-02-09 02:31:00,25.0,25.0,29.99,SE,140,20.0,25.0,100,-99.99,,,-99.99,,2013-02-09 08:31:00,
2013-02-09 02:42:00,25.0,25.0,29.99,SE,140,20.0,25.0,100,-99.99,,,-99.99,,2013-02-09 08:42:00,
2013-02-09 02:52:00,27.0,27.0,29.99,SE,130,16.0,27.0,100,-99.99,,,-99.99,,2013-02-09 08:52:00,
2013-02-09 03:03:00,27.0,27.0,29.99,SE,130,16.0,27.0,100,-99.99,,,-99.99,,2013-02-09 09:03:00,
2013-02-09 03:11:00,27.0,27.0,29.98,SE,130,16.0,25.0,100,-99.99,,,-99.99,,2013-02-09 09:11:00,
2013-02-09 03:21:00,27.0,27.0,29.98,SE,130,16.0,25.0,100,-99.99,,,-99.99,,2013-02-09 09:21:00,
2013-02-09 03:31:00,27.0,27.0,29.97,SE,130,20.0,25.0,100,-99.99,,,-99.99,,2013-02-09 09:31:00,
2013-02-09 03:42:00,27.0,27.0,29.97,SE,130,20.0,25.0,100,-99.99,,,-99.99,,2013-02-09 09:42:00,
2013-02-09 03:51:00,27.0,27.0,29.97,SE,140,21.0,28.0,100,-99.99,,,-99.99,,2013-02-09 09:51:00,
2013-02-09 04:01:00,27.0,27.0,29.97,SE,140,21.0,28.0,100,-99.99,,,-99.99,,2013-02-09 10:01:00,
2013-02-09 04:11:00,27.0,27.0,29.97,SE,140,21.0,28.0,100,-99.99,,,-99.99,,2013-02-09 10:11:00,
2013-02-09 04:21:00,27.0,27.0,29.96,SE,140,18.0,31.0,100,-99.99,,,-99.99,,2013-02-09 10:21:00,
2013-02-09 04:31:00,28.0,28.0,29.95,SE,140,23.0,31.0,100,-99.99,,,-99.99,,2013-02-09 10:31:00,
2013-02-09 04:42:00,28.0,28.0,29.95,SE,140,23.0,31.0,100,-99.99,,,-99.99,,2013-02-09 10:42:00,
2013-02-09 04:51:00,28.0,28.0,29.95,SSE,150,16.0,24.0,100,-99.99,,,-99.99,,2013-02-09 10:51:00,
2013-02-09 05:01:00,28.0,28.0,29.95,SSE,150,16.0,24.0,100,-99.99,,,-99.99,,2013-02-09 11:01:00,
2013-02-09 05:11:00,28.0,28.0,29.93,SSE,150,20.0,25.0,100,-99.99,,,-99.99,,2013-02-09 11:11:00,
2013-02-09 05:22:00,28.0,28.0,29.93,SSE,150,20.0,25.0,100,-99.99,,,-99.99,,2013-02-09 11:22:00,
2013-02-09 05:31:00,28.0,28.0,29.93,SE,140,17.0,27.0,100,-99.99,,,-99.99,,2013-02-09 11:31:00,
2013-02-09 05:41:00,28.0,28.0,29.93,SE,140,17.0,27.0,100,-99.99,,,-99.99,,2013-02-09 11:41:00,
2013-02-09 05:52:00,28.0,28.0,29.94,SSE,150,13.0,22.0,100,-99.99,,,-99.99,,2013-02-09 11:52:00,
2013-02-09 06:02:00,28.0,28.0,29.94,SSE,150,13.0,22.0,100,-99.99,,,-99.99,,2013-02-09 12:02:00,
2013-02-09 06:11:00,28.0,28.0,29.95,SSE,150,15.0,21.0,100,-99.99,,,-99.99,,2013-02-09 12:11:00,
2013-02-09 06:21:00,28.0,28.0,29.95,SSE,150,15.0,21.0,100,-99.99,,,-99.99,,2013-02-09 12:21:00,
2013-02-09 06:32:00,28.0,28.0,29.95,SSE,150,15.0,23.0,100,-99.99,,,-99.99,,2013-02-09 12:32:00,
2013-02-09 06:42:00,28.0,28.0,29.95,SSE,150,15.0,23.0,100,-99.99,,,-99.99,,2013-02-09 12:42:00,
2013-02-09 06:52:00,28.0,28.0,29.95,SSE,150,17.0,24.0,100,-99.99,,,-99.99,,2013-02-09 12:52:00,
2013-02-09 07:02:00,28.0,28.0,29.95,SSE,150,17.0,24.0,100,-99.99,,,-99.99,,2013-02-09 13:02:00,
2013-02-09 07:11:00,28.0,28.0,29.95,SSE,150,18.0,-999.0,100,-99.99,,,-99.99,,2013-02-09 13:11:00,
2013-02-09 07:22:00,28.0,28.0,29.95,SSE,150,18.0,-999.0,100,-99.99,,,-99.99,,2013-02-09 13:22:00,
2013-02-09 07:32:00,28.0,28.0,29.95,SE,140,16.0,21.0,100,-99.99,,,-99.99,,2013-02-09 13:32:00,
2013-02-09 07:42:00,28.0,28.0,29.95,SE,140,16.0,21.0,100,-99.99,,,-99.99,,2013-02-09 13:42:00,
2013-02-09 07:51:00,28.0,28.0,29.95,SE,140,16.0,21.0,100,-99.99,,,-99.99,,2013-02-09 13:51:00,
2013-02-09 08:01:00,28.0,28.0,29.95,SE,140,16.0,21.0,100,-99.99,,,-99.99,,2013-02-09 14:01:00,
2013-02-09 08:11:00,28.0,28.0,29.95,SE,140,16.0,22.0,100,-99.99,,,-99.99,,2013-02-09 14:11:00,
2013-02-09 08:21:00,28.0,28.0,29.95,SE,140,16.0,22.0,100,-99.99,,,-99.99,,2013-02-09 14:21:00,
2013-02-09 08:31:00,28.0,28.0,29.94,SE,140,17.0,24.0,100,-99.99,,,-99.99,,2013-02-09 14:31:00,
2013-02-09 08:42:00,28.0,28.0,29.94,SE,140,17.0,24.0,100,-99.99,,,-99.99,,2013-02-09 14:42:00,
2013-02-09 08:52:00,28.0,28.0,29.94,SE,140,17.0,-999.0,100,-99.99,,,-99.99,,2013-02-09 14:52:00,
2013-02-09 09:02:00,28.0,28.0,29.94,SE,140,17.0,-999.0,100,-99.99,,,-99.99,,2013-02-09 15:02:00,
2013-02-09 09:11:00,30.0,30.0,29.94,SSE,150,17.0,22.0,100,-99.99,,,-99.99,,2013-02-09 15:11:00,
2013-02-09 09:21:00,30.0,30.0,29.94,SSE,150,17.0,22.0,100,-99.99,,,-99.99,,2013-02-09 15:21:00,
2013-02-09 09:32:00,30.0,30.0,29.94,SSE,150,15.0,22.0,100,-99.99,,,-99.99,,2013-02-09 15:32:00,
2013-02-09 09:42:00,30.0,30.0,29.94,SSE,150,15.0,22.0,100,-99.99,,,-99.99,,2013-02-09 15:42:00,
2013-02-09 09:51:00,30.0,30.0,29.93,SSE,150,14.0,20.0,100,-99.99,,,-99.99,,2013-02-09 15:51:00,
2013-02-09 10:01:00,30.0,30.0,29.93,SSE,150,14.0,20.0,100,-99.99,,,-99.99,,2013-02-09 16:01:00,
2013-02-09 10:11:00,30.0,30.0,29.93,SSE,150,14.0,22.0,100,-99.99,,,-99.99,,2013-02-09 16:11:00,
2013-02-09 10:22:00,30.0,30.0,29.93,SSE,150,14.0,22.0,100,-99.99,,,-99.99,,2013-02-09 16:22:00,
2013-02-09 10:31:00,30.0,30.0,29.92,SSE,150,15.0,-999.0,100,-99.99,,,-99.99,,2013-02-09 16:31:00,
2013-02-09 10:42:00,30.0,30.0,29.92,SSE,150,15.0,-999.0,100,-99.99,,,-99.99,,2013-02-09 16:42:00,
2013-02-09 10:52:00,32.0,32.0,29.92,SE,140,13.0,20.0,100,-99.99,,,-99.99,,2013-02-09 16:52:00,
2013-02-09 11:01:00,32.0,32.0,29.92,SE,140,13.0,20.0,100,-99.99,,,-99.99,,2013-02-09 17:01:00,
2013-02-09 11:11:00,32.0,32.0,29.92,SE,140,13.0,20.0,100,-99.99,,,-99.99,,2013-02-09 17:11:00,
2013-02-09 11:21:00,32.0,30.0,29.91,SSE,150,13.0,22.0,92,-99.99,,,-99.99,,2013-02-09 17:21:00,
2013-02-09 11:32:00,34.0,32.0,29.91,SSE,150,14.0,21.0,93,-99.99,,,-99.99,,2013-02-09 17:32:00,
2013-02-09 11:42:00,34.0,32.0,29.91,SSE,150,14.0,21.0,93,-99.99,,,-99.99,,2013-02-09 17:42:00,
2013-02-09 11:52:00,34.0,32.0,29.89,SSE,150,15.0,23.0,93,-99.99,,,-99.99,,2013-02-09 17:52:00,
2013-02-09 12:02:00,34.0,32.0,29.89,SSE,150,15.0,23.0,93,-99.99,,,-99.99,,2013-02-09 18:02:00,
2013-02-09 12:12:00,34.0,32.0,29.88,SSE,150,18.0,25.0,93,-99.99,,,-99.99,,2013-02-09 18:12:00,
2013-02-09 12:23:00,34.0,32.0,29.88,SSE,150,18.0,25.0,93,-99.99,,,-99.99,,2013-02-09 18:23:00,
2013-02-09 12:32:00,36.0,34.0,29.87,SSE,150,16.0,22.0,93,-99.99,,,-99.99,,2013-02-09 18:32:00,
2013-02-09 12:42:00,36.0,34.0,29.87,SSE,150,16.0,22.0,93,-99.99,,,-99.99,,2013-02-09 18:42:00,
2013-02-09 12:51:00,36.0,34.0,29.85,SSE,150,17.0,24.0,93,-99.99,,,-99.99,,2013-02-09 18:51:00,
2013-02-09 13:01:00,36.0,34.0,29.85,SSE,150,17.0,24.0,93,-99.99,,,-99.99,,2013-02-09 19:01:00,
2013-02-09 13:11:00,37.0,34.0,29.85,SSE,150,15.0,24.0,86,-99.99,,,-99.99,,2013-02-09 19:11:00,
2013-02-09 13:22:00,37.0,34.0,29.85,SSE,150,15.0,24.0,86,-99.99,,,-99.99,,2013-02-09 19:22:00,
2013-02-09 13:32:00,39.0,36.0,29.83,SSE,150,15.0,24.0,86,-99.99,,,-99.99,,2013-02-09 19:32:00,
2013-02-09 13:42:00,39.0,36.0,29.83,SSE,150,15.0,24.0,86,-99.99,,,-99.99,,2013-02-09 19:42:00,
2013-02-09 13:52:00,39.0,36.0,29.82,South,180,13.0,22.0,86,-99.99,,,-99.99,,2013-02-09 19:52:00,
2013-02-09 14:01:00,39.0,36.0,29.82,South,180,13.0,22.0,86,-99.99,,,-99.99,,2013-02-09 20:01:00,
2013-02-09 14:11:00,41.0,36.0,29.81,SE,140,13.0,23.0,80,-99.99,,,-99.99,,2013-02-09 20:11:00,
2013-02-09 14:21:00,41.0,36.0,29.81,SE,140,13.0,23.0,80,-99.99,,,-99.99,,2013-02-09 20:21:00,
2013-02-09 14:31:00,43.0,37.0,29.80,SSE,160,14.0,21.0,81,-99.99,,,-99.99,,2013-02-09 20:31:00,
2013-02-09 14:42:00,43.0,37.0,29.80,SSE,160,14.0,21.0,81,-99.99,,,-99.99,,2013-02-09 20:42:00,
2013-02-09 14:52:00,43.0,37.0,29.78,ESE,120,12.0,16.0,81,-99.99,,,-99.99,,2013-02-09 20:52:00,
2013-02-09 15:02:00,43.0,37.0,29.78,ESE,120,12.0,16.0,81,-99.99,,,-99.99,,2013-02-09 21:02:00,
2013-02-09 15:11:00,43.0,37.0,29.78,SE,130,14.0,21.0,81,-99.99,,,-99.99,,2013-02-09 21:11:00,
2013-02-09 15:21:00,43.0,37.0,29.78,SE,130,14.0,21.0,81,-99.99,,,-99.99,,2013-02-09 21:21:00,
2013-02-09 15:31:00,43.0,37.0,29.77,ESE,110,8.0,-999.0,81,-99.99,,,-99.99,,2013-02-09 21:31:00,
2013-02-09 15:42:00,43.0,37.0,29.77,ESE,110,8.0,-999.0,81,-99.99,,,-99.99,,2013-02-09 21:42:00,
2013-02-09 15:52:00,43.0,37.0,29.77,ESE,120,10.0,21.0,81,-99.99,,,-99.99,,2013-02-09 21:52:00,
2013-02-09 16:01:00,43.0,37.0,29.77,ESE,120,10.0,21.0,81,-99.99,,,-99.99,,2013-02-09 22:01:00,
2013-02-09 16:11:00,43.0,37.0,29.76,ESE,120,10.0,15.0,81,-99.99,,,-99.99,,2013-02-09 22:11:00,
2013-02-09 16:21:00,43.0,37.0,29.76,ESE,120,10.0,15.0,81,-99.99,,,-99.99,,2013-02-09 22:21:00,
2013-02-09 16:32:00,43.0,37.0,29.75,ESE,120,8.0,-999.0,81,-99.99,,,-99.99,,2013-02-09 22:32:00,
2013-02-09 16:42:00,43.0,37.0,29.75,ESE,120,8.0,-999.0,81,-99.99,,,-99.99,,2013-02-09 22:42:00,
2013-02-09 16:51:00,43.0,37.0,29.74,ESE,110,8.0,-999.0,81,-99.99,,,-99.99,,2013-02-09 22:51:00,
2013-02-09 17:01:00,43.0,37.0,29.74,ESE,110,8.0,-999.0,81,-99.99,,,-99.99,,2013-02-09 23:01:00,
2013-02-09 17:11:00,43.0,37.0,29.73,ESE,110,6.0,-999.0,81,-99.99,,,-99.99,,2013-02-09 23:11:00,
2013-02-09 17:21:00,43.0,37.0,29.73,ESE,110,6.0,-999.0,81,-99.99,,,-99.99,,2013-02-09 23:21:00,
2013-02-09 17:32:00,39.0,36.0,29.74,ESE,110,7.0,-999.0,86,-99.99,,,-99.99,,2013-02-09 23:32:00,
2013-02-09 17:42:00,39.0,36.0,29.74,ESE,110,7.0,-999.0,86,-99.99,,,-99.99,,2013-02-09 23:42:00,
2013-02-09 17:52:00,39.0,36.0,29.74,ESE,110,6.0,-999.0,86,-99.99,,,-99.99,,2013-02-09 23:52:00,
2013-02-09 18:02:00,39.0,36.0,29.74,ESE,110,6.0,-999.0,86,-99.99,,,-99.99,,2013-02-10 00:02:00,
2013-02-09 18:12:00,39.0,36.0,29.74,ESE,120,8.0,-999.0,86,-99.99,,,-99.99,,2013-02-10 00:12:00,
2013-02-09 18:22:00,39.0,36.0,29.74,ESE,120,8.0,-999.0,86,-99.99,,,-99.99,,2013-02-10 00:22:00,
2013-02-09 18:32:00,39.0,36.0,29.75,SE,130,10.0,-999.0,86,-99.99,,,-99.99,,2013-02-10 00:32:00,
2013-02-09 18:42:00,39.0,36.0,29.75,SE,130,10.0,-999.0,86,-99.99,,,-99.99,,2013-02-10 00:42:00,
2013-02-09 18:51:00,39.0,36.0,29.75,ESE,120,9.0,-999.0,86,-99.99,,,-99.99,,2013-02-10 00:51:00,
2013-02-09 19:01:00,39.0,36.0,29.75,ESE,120,9.0,-999.0,86,-99.99,,,-99.99,,2013-02-10 01:01:00,
2013-02-09 19:12:00,39.0,37.0,29.74,ESE,120,8.0,-999.0,93,-99.99,,,-99.99,,2013-02-10 01:12:00,
2013-02-09 19:21:00,39.0,37.0,29.74,ESE,120,8.0,-999.0,93,-99.99,,,-99.99,,2013-02-10 01:21:00,
2013-02-09 19:32:00,39.0,36.0,29.74,ESE,110,8.0,-999.0,86,-99.99,,,-99.99,,2013-02-10 01:32:00,
2013-02-09 19:42:00,39.0,36.0,29.74,ESE,110,8.0,-999.0,86,-99.99,,,-99.99,,2013-02-10 01:42:00,
2013-02-09 19:51:00,39.0,36.0,29.74,ESE,110,7.0,-999.0,86,-99.99,,,-99.99,,2013-02-10 01:51:00,
2013-02-09 20:01:00,39.0,36.0,29.74,ESE,110,7.0,-999.0,86,-99.99,,,-99.99,,2013-02-10 02:01:00,
2013-02-09 20:11:00,37.0,36.0,29.74,ESE,110,9.0,-999.0,93,-99.99,,,-99.99,,2013-02-10 02:11:00,
2013-02-09 20:22:00,37.0,36.0,29.74,ESE,110,9.0,-999.0,93,-99.99,,,-99.99,,2013-02-10 02:22:00,
2013-02-09 20:32:00,37.0,36.0,29.74,ESE,110,6.0,-999.0,93,-99.99,,,-99.99,,2013-02-10 02:32:00,
2013-02-09 20:42:00,37.0,36.0,29.74,ESE,110,6.0,-999.0,93,-99.99,,,-99.99,,2013-02-10 02:42:00,
2013-02-09 20:52:00,37.0,37.0,29.74,ESE,110,8.0,-999.0,100,-99.99,,,-99.99,,2013-02-10 02:52:00,
2013-02-09 21:02:00,37.0,37.0,29.74,ESE,110,8.0,-999.0,100,-99.99,,,-99.99,,2013-02-10 03:02:00,
2013-02-09 21:11:00,37.0,36.0,29.74,East,100,8.0,-999.0,93,-99.99,,,-99.99,,2013-02-10 03:11:00,
2013-02-09 21:21:00,37.0,36.0,29.74,East,100,8.0,-999.0,93,-99.99,,,-99.99,,2013-02-10 03:21:00,
2013-02-09 21:32:00,36.0,36.0,29.72,East,90,14.0,18.0,100,-99.99,,,-99.99,,2013-02-10 03:32:00,
2013-02-09 21:41:00,36.0,36.0,29.72,East,90,14.0,18.0,100,-99.99,,,-99.99,,2013-02-10 03:41:00,
2013-02-09 21:51:00,36.0,34.0,29.72,East,100,13.0,17.0,93,-99.99,,,-99.99,,2013-02-10 03:51:00,
2013-02-09 22:01:00,36.0,34.0,29.72,East,100,13.0,17.0,93,-99.99,,,-99.99,,2013-02-10 04:01:00,
2013-02-09 22:11:00,36.0,34.0,29.71,East,100,13.0,18.0,93,-99.99,,,-99.99,,2013-02-10 04:11:00,
2013-02-09 22:21:00,36.0,34.0,29.71,East,100,13.0,18.0,93,-99.99,,,-99.99,,2013-02-10 04:21:00,
2013-02-09 22:32:00,36.0,36.0,29.71,East,100,15.0,22.0,100,-99.99,,,-99.99,,2013-02-10 04:32:00,
2013-02-09 22:42:00,36.0,36.0,29.71,East,100,15.0,22.0,100,-99.99,,,-99.99,,2013-02-10 04:42:00,
2013-02-09 22:51:00,34.0,34.0,29.69,East,100,14.0,20.0,100,-99.99,,,-99.99,,2013-02-10 04:51:00,
2013-02-09 23:01:00,34.0,34.0,29.69,East,100,14.0,20.0,100,-99.99,,,-99.99,,2013-02-10 05:01:00,
2013-02-09 23:11:00,34.0,34.0,29.68,East,90,17.0,22.0,100,-99.99,,,-99.99,,2013-02-10 05:11:00,
2013-02-09 23:22:00,34.0,34.0,29.68,East,90,17.0,22.0,100,-99.99,,,-99.99,,2013-02-10 05:22:00,
2013-02-09 23:31:00,34.0,34.0,29.68,East,100,14.0,18.0,100,-99.99,,,-99.99,,2013-02-10 05:31:00,
2013-02-09 23:41:00,34.0,34.0,29.68,East,100,14.0,18.0,100,-99.99,,,-99.99,,2013-02-10 05:41:00,
2013-02-09 23:52:00,34.0,34.0,29.68,East,100,13.0,20.0,100,-99.99,,,-99.99,,2013-02-10 05:52:00,